Wind_Speed
24 22 21 20 18 15 13 12 12 12 13 13 13 11 11 12 13 14 15 14 13 11 9 8 10 13 14 15 15 14 14 13 13 14 15 16 16 16 16 17 17 17 16 16 16 16 16 17 18 18 18 18 19 19 19 20 20 20 20 20 19 19 19 19 19 18 18 18 18 18 18 18 18 19 20 20 21 22 22 22 23 23 23 23 22
23 21 19 17 15 13 12 11 11 12 13 13 12 11 11 13 14 15 16 15 13 11 9 8 10 12 14 14 14 13 12 12 13 15 15 15 15 15 16 16 16 16 15 15 16 16 17 17 18 19 19 19 20 20 21 21 21 22 22 22 21 21 21 21 21 21 20 20 20 20 20 20 20 19 19 20 20 21 22 23 23 23 24 24 23
18 17 17 15 14 13 12 12 12 13 13 12 11 11 12 13 14 15 16 14 13 11 9 9 10 11 13 13 11 10 11 12 14 15 15 14 14 14 15 14 14 14 15 15 16 16 16 17 18 19 20 20 21 21 21 22 22 22 23 23 23 23 23 23 22 23 22 22 22 22 21 21 21 21 21 21 21 21 22 22 23 23 23 24 23
14 15 15 14 13 13 13 13 14 12 11 10 10 11 12 13 14 15 15 14 13 11 10 10 11 11 12 11 10 10 11 13 15 15 15 14 13 12 12 12 12 12 13 13 14 14 15 16 17 18 19 20 21 21 21 22 22 22 23 23 24 24 24 24 24 24 24 24 24 24 24 23 23 22 22 22 22 22 22 22 22 23 23 23 23
14 15 14 13 13 14 14 15 14 11 10 10 10 11 12 13 14 15 15 15 14 11 11 11 12 12 10 9 9 11 13 14 13 12 12 12 11 10 9 9 10 10 10 11 11 12 13 14 15 17 18 19 20 20 21 21 22 22 23 23 24 25 25 25 25 25 25 26 26 26 26 25 25 24 24 24 24 23 23 23 23 23 23 23 23
13 14 13 13 13 14 15 15 13 11 9 10 11 11 11 12 13 14 14 14 13 12 11 10 11 12 10 8 10 13 14 12 10 8 8 9 9 8 8 8 9 9 9 10 11 11 12 13 14 16 16 18 19 20 20 21 22 23 23 24 24 24 25 25 25 26 26 27 27 27 28 28 27 26 25 25 24 24 24 24 24 24 24 23 23
12 13 12 12 13 13 14 14 13 10 9 9 10 11 11 11 11 12 13 12 12 12 11 10 10 10 8 8 11 13 12 10 8 7 7 7 7 7 8 8 9 9 10 10 10 11 11 12 14 15 15 16 17 18 19 21 22 23 24 23 23 24 24 25 26 27 27 27 27 28 28 29 29 28 28 27 26 25 25 25 25 25 25 25 25
11 12 12 12 12 12 13 14 12 10 9 9 10 10 11 12 12 11 11 12 11 11 11 9 8 7 7 8 10 10 8 7 7 6 7 7 7 7 8 8 8 8 9 9 9 9 10 10 11 13 14 16 16 17 18 20 21 22 23 23 23 25 25 26 27 28 28 28 28 28 29 29 30 30 30 29 28 26 26 25 25 25 26 26 25
12 13 13 14 13 12 13 13 11 9 8 8 9 10 11 12 11 11 11 12 12 11 10 9 8 6 7 9 9 8 6 5 6 6 6 6 6 7 8 8 7 7 8 8 8 8 8 9 9 10 12 13 14 14 15 17 19 20 21 22 24 25 27 27 27 28 28 28 28 28 29 30 31 31 31 30 29 28 27 27 27 26 26 26 26
12 12 12 13 12 11 12 12 10 8 7 8 9 10 10 10 10 10 10 12 14 13 11 8 7 6 8 9 7 6 5 4 5 6 5 6 7 7 8 8 6 6 7 7 7 7 7 7 8 8 9 10 10 10 11 13 14 16 18 20 21 22 24 25 26 27 28 28 30 30 30 31 31 32 31 31 30 30 29 29 28 28 28 28 27
8 8 9 10 10 10 10 9 8 8 8 9 10 10 10 10 9 9 9 11 14 15 12 7 6 7 8 8 6 6 5 5 5 6 6 7 7 7 6 6 6 6 6 6 6 6 7 7 7 8 8 9 9 10 10 11 13 14 15 16 17 17 18 20 22 23 24 26 28 29 30 29 30 31 32 31 31 31 31 30 30 29 29 29 29
6 7 8 8 8 9 8 8 8 9 9 10 11 11 11 10 9 10 9 9 11 13 12 9 7 8 7 7 7 7 6 5 5 5 6 7 7 6 6 6 6 6 6 7 7 7 8 8 7 7 8 10 11 12 13 13 14 14 15 14 14 14 14 15 17 19 20 23 25 26 26 26 27 28 30 31 31 31 31 31 30 30 30 30 30
7 7 7 7 8 8 8 8 9 10 11 11 11 11 11 10 10 10 10 10 11 12 13 12 11 10 8 8 9 8 6 5 4 5 6 7 8 7 7 7 7 8 8 8 9 9 10 9 8 9 10 12 13 14 14 15 15 15 15 14 12 11 11 12 14 17 20 20 22 23 24 24 25 26 27 28 30 31 31 30 31 31 31 31 31
7 7 7 7 8 9 10 10 10 11 12 13 13 13 12 12 11 11 11 11 12 12 13 13 12 11 10 10 11 9 6 5 6 7 8 8 8 8 8 8 8 8 8 9 10 11 11 10 10 11 12 13 14 14 15 16 16 16 15 14 11 10 10 11 12 15 18 19 20 21 21 22 23 24 24 25 26 27 28 30 30 31 31 31 31
8 8 8 9 10 11 12 12 12 13 13 13 14 14 13 13 13 13 13 13 12 13 13 13 12 12 12 12 12 10 8 8 9 10 10 10 10 10 9 8 8 9 10 11 13 13 12 12 12 12 13 14 15 16 16 17 16 16 16 14 12 10 10 10 11 13 16 18 19 20 20 20 20 21 22 22 23 24 25 27 28 29 31 31 31
11 11 11 12 12 13 13 13 13 14 14 14 13 14 14 14 14 14 15 14 13 13 13 12 12 13 13 13 13 11 10 10 12 12 12 11 11 11 9 9 10 11 13 14 14 13 13 13 14 14 15 16 17 17 17 18 17 17 16 15 13 12 11 10 11 13 14 14 16 17 17 18 18 19 20 21 22 24 24 25 25 25 26 27 28
13 13 13 12 12 13 14 14 14 15 14 14 14 14 14 14 15 15 15 15 13 13 13 13 13 13 13 14 14 13 11 12 13 14 13 12 12 12 10 10 12 13 15 15 15 14 14 14 15 16 16 17 18 18 18 19 19 18 17 16 15 13 12 11 12 13 12 12 13 15 15 16 16 17 17 18 19 21 22 22 22 21 21 22 23
13 12 12 12 12 12 13 13 14 15 15 14 14 14 14 14 14 15 15 15 14 14 14 14 14 14 15 15 15 13 13 14 15 14 13 13 14 12 11 12 14 15 16 16 15 14 15 15 16 17 17 18 19 19 19 19 19 19 18 17 16 15 13 12 13 14 13 12 13 14 14 14 14 14 15 15 16 17 18 20 21 21 20 21 20
11 11 12 12 12 12 13 13 13 14 14 14 13 13 14 14 14 15 16 15 15 15 15 15 15 15 16 16 15 14 15 16 15 14 14 15 15 14 13 15 16 17 16 15 15 15 16 17 17 18 18 18 18 18 19 19 19 18 18 18 17 16 15 14 15 16 15 15 15 15 16 16 16 16 16 16 16 16 17 18 19 20 20 20 20
10 11 11 11 12 12 12 13 13 13 14 14 13 13 13 13 14 14 14 14 14 15 15 16 16 16 16 16 16 16 16 17 16 16 16 16 16 15 15 17 17 17 16 15 15 15 17 18 18 18 18 17 17 17 18 18 18 18 18 17 17 16 16 15 16 16 16 17 17 17 18 18 18 19 19 19 19 19 19 19 19 20 21 21 21
9 10 11 10 10 11 12 13 14 14 13 13 12 12 12 12 12 11 11 12 13 14 15 16 16 16 16 16 16 17 17 17 17 17 17 17 17 16 17 18 17 16 16 15 15 16 17 17 17 16 16 16 17 17 17 17 17 18 17 17 17 16 16 16 16 17 17 17 18 19 19 20 20 20 20 21 21 21 21 21 22 23 23 23 23
9 10 11 10 9 10 11 12 13 14 13 13 12 12 11 11 11 10 11 12 13 14 15 15 16 16 17 16 16 17 17 18 18 18 18 18 17 17 17 18 17 17 17 16 15 17 18 17 16 16 16 16 17 17 17 17 17 17 17 17 17 16 16 16 16 17 17 17 18 18 19 20 20 21 21 21 21 22 22 22 22 23 23 23 23
9 10 10 10 9 9 9 11 12 13 14 13 13 12 12 12 12 12 12 13 13 13 14 14 15 16 16 15 15 16 17 17 18 19 18 18 17 16 17 18 18 18 18 16 16 17 17 16 16 16 16 16 17 17 17 17 17 17 17 17 17 16 16 16 16 16 16 16 16 17 17 18 19 19 20 20 20 21 21 21 21 21 21 21 22
8 9 10 10 10 10 9 10 11 13 13 12 12 12 12 12 12 12 12 13 13 13 14 14 14 15 15 15 15 16 17 18 18 18 18 17 16 16 17 18 18 18 18 16 17 18 18 17 16 16 16 16 16 17 17 17 17 17 17 16 16 16 15 15 15 15 15 15 15 15 15 15 15 16 16 16 17 18 18 18 18 18 19 19 19
9 9 9 10 11 11 11 11 11 11 10 10 9 9 9 9 10 10 10 11 12 13 14 14 14 15 15 15 15 16 16 17 17 17 16 16 16 17 19 19 18 18 17 17 17 18 18 17 17 16 16 16 17 17 17 17 17 17 16 16 15 15 14 14 13 13 13 13 13 13 13 13 13 13 13 13 13 13 13 13 14 14 14 15 15
10 11 11 11 12 12 13 13 13 12 11 10 10 9 8 8 9 9 9 10 11 12 13 14 14 15 15 16 16 16 16 16 16 16 15 16 16 18 18 18 17 17 17 17 18 18 18 18 17 16 16 17 17 17 16 16 16 16 15 15 14 14 14 13 13 12 12 12 12 12 12 12 12 12 11 11 11 11 10 10 11 11 11 11 11
11 12 12 12 13 12 13 14 14 14 14 13 13 13 12 11 11 11 11 11 12 12 13 14 15 15 15 16 16 16 16 16 16 15 15 16 16 17 18 17 17 17 18 18 18 18 18 17 17 16 16 16 16 16 16 15 15 15 14 14 14 14 14 13 13 12 12 12 12 13 12 12 12 12 12 11 11 11 10 10 10 10 10 10 10
11 11 10 11 12 13 14 13 13 14 15 15 15 15 14 14 14 14 13 13 13 14 14 14 15 15 15 16 16 17 16 16 16 16 16 16 16 17 18 18 18 18 18 18 18 18 17 17 17 16 16 16 16 16 16 15 15 15 15 15 15 15 15 14 14 14 14 14 14 13 13 13 13 13 13 12 12 12 11 11 11 11 11 11 12
10 9 9 9 11 13 14 13 12 12 13 14 15 15 15 15 15 15 15 15 15 15 15 15 15 15 15 16 17 17 16 16 16 16 17 17 17 18 19 19 19 19 19 19 18 18 16 16 16 16 17 17 16 16 16 16 16 16 17 17 17 17 16 16 15 15 15 15 15 15 14 14 14 14 13 13 13 13 14 14 14 14 14 14 14
9 8 8 8 10 12 12 12 11 11 12 12 13 13 14 14 14 14 15 16 16 16 16 16 16 15 15 15 16 16 16 16 16 16 17 18 19 19 19 20 20 19 19 19 19 18 17 16 16 16 17 17 18 18 18 18 18 19 19 19 19 18 17 17 17 17 17 17 17 17 16 15 15 15 15 14 14 14 15 15 15 15 16 16 16
11 10 9 9 10 11 11 10 10 11 10 10 9 10 10 11 11 12 14 15 16 17 17 17 16 16 16 16 16 15 15 16 16 17 18 19 20 20 20 20 19 19 18 19 19 19 18 18 17 17 17 17 18 19 20 20 19 20 20 21 20 18 18 17 18 18 18 18 18 18 18 17 16 16 15 15 15 15 15 15 16 17 17 17 17
14 13 12 11 11 11 11 11 11 11 10 9 9 9 9 9 10 11 12 13 14 15 16 16 16 16 16 17 17 16 16 16 17 18 18 19 19 19 19 19 19 18 18 19 19 19 19 19 19 18 19 19 18 19 20 20 20 20 21 21 20 18 18 18 18 19 19 19 18 18 18 18 17 16 15 15 15 16 16 17 17 18 18 18 17
16 14 13 13 13 13 12 12 12 11 11 11 10 10 9 9 10 10 11 12 13 14 14 15 15 16 16 16 16 16 16 16 17 18 18 18 18 18 18 18 18 18 19 19 19 19 19 19 19 19 20 20 19 18 18 18 19 20 21 21 20 19 18 19 19 20 20 19 19 18 18 18 18 17 17 17 17 18 18 19 19 19 19 19 19
16 15 15 14 14 14 13 13 12 12 11 11 10 10 10 10 10 10 10 11 11 12 13 13 14 14 14 15 15 14 15 16 16 17 17 17 17 17 18 18 18 18 19 19 19 19 18 19 19 20 20 19 18 18 17 17 18 20 20 20 20 19 19 19 19 20 20 20 19 18 18 19 19 20 19 19 20 20 20 21 21 21 22 22 23
17 16 15 15 14 14 13 13 13 13 12 11 10 10 10 10 10 10 10 10 10 11 11 12 12 12 13 13 13 13 14 14 15 15 16 16 17 17 18 18 18 18 18 19 18 18 18 19 20 20 19 17 17 17 18 18 19 20 21 20 20 19 19 19 20 20 20 21 20 20 20 21 22 22 23 23 23 23 23 23 24 24 25 26 27
18 16 15 15 14 14 13 13 13 13 12 11 10 10 10 10 10 10 10 10 11 11 11 12 12 13 13 12 12 12 13 13 14 14 15 16 17 18 18 18 18 18 18 18 18 17 17 18 18 19 18 18 17 17 18 19 20 21 22 21 21 20 20 20 21 21 21 22 22 23 23 23 24 25 26 26 26 26 26 26 27 28 29 30 31
17 16 16 15 15 14 13 13 13 13 12 11 11 11 11 10 10 10 10 10 11 11 12 12 12 12 12 12 12 12 12 12 12 13 14 15 15 16 16 16 16 17 17 17 17 17 17 17 18 18 19 19 18 18 19 20 21 23 24 24 23 23 22 22 22 23 23 24 25 25 26 27 27 28 29 30 29 29 29 30 31 32 33 34 35
17 17 16 16 16 15 15 14 14 14 13 12 12 11 11 11 10 10 11 11 11 12 12 12 12 13 13 13 13 12 12 12 12 12 12 13 13 14 14 14 14 15 16 16 17 17 17 17 18 19 19 20 20 20 21 22 23 25 26 26 27 26 25 25 25 25 25 26 26 27 28 29 30 31 32 32 32 32 32 33 34 35 36 37 38
18 17 17 17 17 17 16 15 15 15 14 14 13 13 12 12 12 12 13 13 13 14 14 14 14 15 15 15 14 14 14 14 15 15 15 14 14 15 15 14 14 15 15 17 17 18 18 19 19 20 21 22 22 23 24 24 25 26 27 28 29 29 29 28 28 27 27 27 28 29 30 31 32 33 34 34 34 34 34 35 36 37 38 39 39
19 18 18 18 19 19 18 17 17 16 16 15 15 14 14 15 15 15 16 16 17 17 17 17 17 17 16 16 15 15 15 16 16 17 17 17 17 17 18 18 18 18 18 19 19 20 20 21 22 23 24 25 26 26 26 26 26 27 27 29 30 31 32 32 31 31 31 31 31 32 33 35 35 35 35 35 35 35 36 38 39 40 41 41 40
21 20 20 21 21 21 21 20 18 18 18 17 17 16 16 17 17 18 19 19 19 19 18 18 18 17 17 16 16 16 16 16 17 18 18 18 18 19 20 21 22 22 21 21 21 21 21 22 23 24 25 27 28 30 30 30 29 29 30 30 32 33 34 34 34 34 34 35 35 35 36 36 35 34 35 36 37 38 39 41 41 42 42 41 41
22 22 22 22 22 23 22 22 20 19 19 19 19 19 19 19 20 20 21 21 21 21 20 20 20 19 18 18 17 17 17 18 18 19 19 19 19 20 21 22 23 24 24 24 23 23 23 24 25 25 26 27 29 30 32 32 32 33 33 33 33 33 34 34 35 35 36 36 37 36 36 35 35 36 37 38 39 40 41 42 42 42 42 42 41
22 22 23 23 24 24 23 23 23 22 21 21 21 21 21 22 22 22 23 23 23 22 22 23 22 22 21 20 20 20 20 20 20 20 21 21 22 23 23 23 23 24 24 24 24 24 25 25 26 27 28 29 31 32 33 34 35 35 36 35 35 34 34 34 36 36 37 37 38 37 35 35 37 39 40 39 39 40 41 42 42 42 42 42 43
23 23 24 25 25 25 25 25 25 24 24 23 23 24 24 24 24 24 24 24 24 24 24 25 25 25 24 23 23 23 23 23 23 23 24 24 25 26 26 26 24 24 24 24 24 24 26 27 29 29 30 32 33 34 36 37 37 37 37 38 37 36 35 36 37 38 38 39 39 38 37 38 40 41 40 40 40 41 42 42 42 42 43 44 44
24 25 28 28 28 28 27 27 27 26 26 26 27 27 27 27 26 26 26 26 26 26 26 26 27 28 27 27 26 26 25 25 25 25 26 27 28 29 30 30 28 27 27 27 27 28 30 32 33 34 35 36 37 38 39 39 39 39 39 40 40 40 39 39 39 40 40 40 40 39 39 41 42 41 41 42 42 43 43 43 43 44 44 45 45
26 29 32 32 30 29 29 29 29 30 30 30 29 29 29 29 29 28 28 29 29 30 30 30 31 31 31 31 30 29 27 26 26 27 28 29 30 31 32 33 33 32 31 30 31 33 35 37 37 37 39 39 40 40 41 40 40 40 40 41 41 41 42 41 42 42 41 41 40 40 41 42 42 42 42 42 43 44 45 45 45 45 45 45 44
28 31 34 33 32 31 31 32 32 33 32 32 32 32 32 31 31 31 32 32 33 33 34 35 35 35 35 35 34 33 31 29 28 28 30 30 32 34 34 33 34 35 34 35 36 38 39 39 38 37 39 41 42 43 42 41 40 40 40 41 41 42 43 44 44 43 41 40 40 42 43 43 43 43 43 43 44 45 45 46 46 47 46 45 44
31 33 34 34 34 34 34 34 35 35 35 34 34 34 34 34 35 35 36 36 36 37 38 39 40 40 39 39 39 38 37 35 32 32 32 32 33 34 35 35 36 37 38 39 40 40 40 40 40 40 42 44 45 44 43 42 41 41 42 42 42 43 44 44 43 42 41 41 42 44 45 44 44 43 44 44 45 46 47 47 48 49 48 47 47
33 35 35 35 36 36 36 37 37 37 38 38 38 38 38 39 39 40 40 40 40 41 42 43 44 45 45 45 44 43 43 42 40 38 38 37 35 36 37 38 40 40 41 42 41 41 42 43 44 45 46 47 47 46 45 44 43 42 44 45 44 44 43 43 43 43 43 44 46 46 45 44 43 43 44 45 46 47 48 49 51 51 51 51 52
36 37 37 37 37 38 38 39 39 40 41 41 42 42 43 44 44 44 45 44 44 45 45 46 47 48 49 49 49 48 47 46 43 42 42 41 40 41 42 42 42 43 43 44 44 44 46 47 47 49 49 49 50 49 48 47 45 44 45 46 46 46 46 46 46 45 45 45 45 45 44 43 43 43 44 46 47 49 50 51 53 53 53 54 54
38 39 39 39 39 39 40 41 42 43 44 45 46 47 48 48 49 49 50 50 50 49 48 48 49 50 51 52 52 52 51 49 48 47 47 46 46 47 47 47 47 46 45 46 47 47 48 49 50 51 52 51 51 50 49 48 47 46 46 47 47 48 47 47 46 45 44 44 44 43 43 43 42 43 45 47 49 50 51 52 53 54 55 55 55
Wind_Direction
270 273 271 266 256 246 239 239 240 244 251 257 260 261 261 260 259 261 265 265 263 260 257 250 240 237 236 231 226 221 217 216 220 225 230 234 237 239 240 241 241 242 244 246 249 250 250 249 248 248 249 250 251 252 253 253 255 256 258 260 262 264 266 268 269 269 269 267 265 263 261 260 258 258 258 259 260 260 261 262 262 264 265 267 268
267 268 267 260 247 239 240 243 246 250 257 262 263 262 260 260 257 259 262 262 262 260 254 248 243 239 235 231 227 223 218 216 220 225 229 234 239 241 242 243 245 248 251 253 256 257 256 255 253 252 251 251 252 253 255 255 255 255 256 258 259 260 261 263 265 267 268 269 269 268 266 264 263 261 260 260 260 261 261 262 263 264 266 268 270
259 257 252 245 239 241 244 249 255 259 264 266 265 264 262 259 257 258 258 256 259 258 248 243 243 240 234 230 230 226 222 221 223 226 228 230 235 239 242 244 247 249 250 252 255 257 257 256 256 254 253 252 252 252 254 255 254 254 255 256 257 257 258 259 262 264 266 268 269 270 269 268 267 265 264 263 262 262 262 263 263 264 266 268 270
244 241 235 234 236 238 245 256 262 262 264 264 264 263 259 257 256 255 251 250 256 250 238 239 235 231 228 229 231 226 223 223 224 226 226 226 230 236 243 247 249 248 249 251 254 258 260 260 259 257 255 253 252 251 252 253 254 254 254 255 256 257 257 259 260 262 264 266 268 269 270 271 270 269 268 267 265 265 264 264 265 265 266 267 268
234 230 229 234 237 239 250 260 261 260 260 260 261 258 255 256 255 252 247 247 251 238 231 237 228 222 226 229 225 221 220 219 221 226 226 225 229 235 244 248 249 248 249 252 254 255 258 259 258 256 254 253 252 252 251 252 253 255 255 255 256 257 259 260 262 263 264 265 266 267 268 269 270 270 269 269 269 268 268 268 268 268 268 268 268
230 230 239 245 245 249 258 263 263 262 258 254 255 254 253 255 255 251 245 244 244 231 226 231 224 223 234 232 222 222 221 216 217 225 224 224 229 232 237 240 241 242 244 250 251 251 252 254 256 256 256 255 255 255 254 253 254 256 256 256 256 256 258 261 262 263 264 265 266 266 267 267 268 269 270 270 270 270 270 270 270 270 270 270 270
238 242 251 252 251 257 264 268 269 265 259 254 253 253 250 249 253 251 242 236 232 223 219 225 224 227 232 223 218 221 220 213 215 221 220 222 224 221 225 231 233 237 242 249 253 254 255 257 260 261 260 260 259 258 257 256 256 256 258 258 258 257 257 258 259 261 262 263 265 266 267 267 267 267 268 269 269 270 271 271 272 272 272 272 272
246 251 253 253 254 260 265 266 267 264 261 259 255 251 246 243 247 248 240 230 222 214 217 228 228 220 216 213 216 221 219 212 210 209 210 212 213 215 222 228 232 235 239 245 250 253 254 256 257 257 258 259 259 259 258 258 258 259 262 262 261 260 258 257 256 258 260 261 263 264 265 265 265 264 265 266 267 268 269 270 271 273 274 274 275
250 253 255 255 255 255 257 260 261 258 256 256 252 245 241 241 241 240 235 227 222 218 223 232 226 213 214 219 223 224 219 212 207 205 210 213 218 224 228 229 233 232 231 236 242 245 247 249 249 249 252 255 257 256 256 259 263 266 267 266 265 263 261 260 258 259 261 262 264 266 266 265 263 262 262 263 264 266 267 269 270 272 274 275 276
252 252 252 251 249 246 249 253 254 249 243 245 246 243 240 240 238 235 234 230 228 225 224 226 218 209 215 223 225 219 213 206 200 201 205 212 222 228 228 230 233 231 228 234 240 243 246 248 249 249 252 255 257 257 258 264 270 273 274 274 272 270 267 266 263 261 262 264 265 266 267 267 266 263 261 261 262 263 265 267 269 271 273 274 276
246 243 243 243 241 239 240 241 237 234 235 239 242 242 239 237 237 237 238 235 228 222 220 222 220 217 218 221 221 215 211 204 193 192 195 204 217 223 223 223 225 228 232 240 245 248 251 251 252 254 257 261 265 268 270 272 276 279 282 284 285 283 278 272 267 265 265 265 265 266 266 267 267 264 259 259 259 260 262 264 266 269 270 272 274
225 226 230 236 240 240 237 230 225 228 235 238 240 240 237 234 236 239 237 229 221 219 225 236 237 230 223 220 222 220 216 211 201 195 197 205 215 220 222 222 223 228 236 247 251 251 253 254 259 264 265 267 269 271 274 276 279 281 284 289 293 293 287 279 273 268 265 264 266 268 268 268 268 265 260 257 257 259 261 263 265 267 269 270 272
210 213 219 228 238 245 243 235 232 233 235 236 235 235 237 237 235 236 235 227 223 226 235 242 241 238 234 228 231 229 217 216 219 216 215 217 218 220 224 226 228 233 238 248 252 252 256 262 268 270 269 268 269 271 273 276 277 280 282 286 293 296 291 281 274 268 264 266 270 272 271 271 269 267 263 260 259 260 262 263 265 266 269 270 272
213 220 226 234 241 246 247 243 240 237 236 234 232 231 232 233 231 231 233 230 228 231 236 238 238 240 238 234 237 235 217 214 226 229 228 230 228 225 226 227 235 244 247 250 253 256 261 268 271 271 271 269 269 270 272 274 276 277 278 282 290 297 293 284 275 269 266 266 268 271 274 275 272 269 267 264 263 262 262 263 265 267 269 271 272
238 244 247 247 248 249 248 245 243 241 239 237 234 232 229 229 228 229 231 229 227 230 233 235 236 235 232 232 237 234 219 217 226 230 231 235 238 236 235 237 243 248 249 251 256 262 268 272 273 273 272 271 270 270 272 274 276 276 276 277 285 294 296 292 284 275 271 271 270 272 276 278 277 273 271 269 268 269 268 267 267 269 269 269 271
252 254 252 250 250 251 249 246 245 244 242 239 236 233 231 231 230 231 231 229 228 231 233 235 235 232 230 231 234 231 222 223 229 234 236 238 241 242 243 247 248 248 251 255 261 267 272 274 273 271 271 272 275 275 276 276 276 276 275 275 280 287 291 293 292 283 277 277 278 277 278 280 278 275 272 271 271 273 273 271 270 271 270 267 269
251 249 248 247 247 248 248 246 244 244 244 241 237 235 233 234 234 233 232 232 233 235 237 237 234 232 234 236 234 230 227 229 233 238 243 245 245 245 246 248 249 250 255 259 264 269 274 274 271 269 271 276 280 280 280 279 277 277 276 275 276 280 283 287 289 285 279 278 280 281 280 280 280 279 277 275 275 276 276 275 274 275 274 271 270
252 251 250 249 246 244 245 245 244 245 245 243 239 237 237 238 237 235 233 234 238 241 243 240 237 237 240 241 237 231 230 233 237 240 244 248 248 247 246 247 250 252 254 258 263 269 272 270 267 268 273 279 282 284 283 282 280 278 277 276 275 275 275 274 274 276 278 278 279 281 281 282 284 285 283 281 280 279 277 277 277 277 277 275 274
252 252 251 250 248 246 244 245 247 248 248 245 240 238 241 242 241 239 238 238 240 243 245 242 240 241 242 242 239 236 237 240 243 243 243 247 250 249 246 245 247 250 255 259 263 267 267 265 264 269 275 279 281 283 284 283 281 280 278 276 275 273 270 267 266 270 274 276 277 278 279 281 283 283 282 281 280 279 278 277 277 278 279 279 279
244 243 245 248 249 248 244 241 243 245 247 246 243 241 242 243 242 242 243 244 244 243 242 242 242 242 243 243 242 243 245 247 248 248 247 248 250 251 248 247 248 252 256 260 262 263 262 261 264 269 274 277 280 281 281 281 281 280 279 276 274 272 270 267 266 267 270 272 274 276 278 280 281 282 282 282 282 282 281 279 278 279 282 281 280
239 238 238 240 243 245 242 237 236 239 243 245 245 243 240 241 242 243 246 247 246 244 244 245 247 248 249 249 249 249 251 251 252 252 250 248 248 250 251 252 255 257 258 259 259 261 261 261 265 269 272 275 277 278 278 279 279 280 280 279 278 275 273 270 268 267 268 270 272 274 276 279 281 282 283 283 284 284 283 281 281 281 283 283 282
238 238 236 232 232 236 238 236 233 233 237 240 241 241 240 240 241 244 247 248 248 249 250 252 253 254 256 256 256 256 256 255 254 253 251 248 248 250 253 257 260 261 260 259 259 260 261 262 264 267 269 272 274 275 275 277 278 279 280 281 280 278 275 273 270 270 270 271 272 274 276 278 280 281 282 283 283 283 283 282 281 281 281 282 282
241 242 241 236 231 230 235 236 233 230 232 235 237 239 240 241 243 245 248 251 254 255 257 257 257 258 258 258 258 258 257 255 253 252 251 251 253 255 257 258 259 260 260 260 259 259 260 261 262 263 266 268 270 272 274 275 276 277 278 279 279 278 277 276 275 274 274 276 277 279 280 282 283 284 284 284 284 284 284 285 284 283 282 281 281
247 248 245 240 234 230 231 233 232 230 230 233 235 237 240 242 244 246 249 253 257 258 259 259 258 258 259 259 256 255 255 254 254 255 255 255 256 255 254 254 255 257 259 260 260 259 260 261 261 262 263 265 267 270 272 273 274 274 275 276 277 279 280 280 281 281 282 283 285 287 289 290 291 291 291 290 289 288 287 288 288 287 285 283 282
255 254 249 244 238 231 228 229 230 228 227 229 232 235 239 243 246 250 253 256 259 260 260 260 259 260 261 261 258 256 256 257 258 259 258 255 252 251 251 253 255 257 258 257 257 257 258 258 258 260 262 264 266 268 269 271 272 272 273 274 276 278 280 282 284 286 287 289 290 292 293 295 297 298 298 297 295 294 292 291 292 291 291 289 288
260 259 252 246 243 237 232 233 235 237 237 239 242 246 249 251 256 260 263 263 262 262 263 263 262 261 260 259 258 257 256 257 259 259 257 253 251 251 252 254 256 257 257 256 254 255 256 256 257 259 261 264 266 267 268 269 271 271 272 273 275 277 279 281 284 286 288 289 290 291 292 294 297 299 302 304 305 304 302 301 300 301 301 301 301
263 263 255 246 244 244 241 239 240 244 248 252 254 256 258 259 261 261 262 262 263 264 266 266 265 264 261 260 260 259 258 258 258 257 254 250 249 251 254 256 258 259 258 256 254 253 254 257 259 261 261 263 264 265 267 269 271 272 273 274 275 276 278 280 283 285 286 286 287 288 290 292 295 298 301 304 307 309 310 310 309 309 310 310 310
260 261 258 245 240 244 247 247 245 247 251 254 256 258 258 258 257 257 257 259 260 263 265 266 266 264 262 260 258 257 256 255 254 252 250 248 248 251 254 257 257 257 255 253 252 251 251 253 255 257 259 260 262 265 267 269 271 272 273 273 273 274 275 278 281 283 284 285 285 287 289 291 293 296 298 301 304 307 310 312 312 312 311 310 310
250 254 254 242 235 239 246 250 251 250 250 252 254 255 256 256 256 257 259 260 261 261 260 260 259 256 255 254 253 252 251 250 249 249 250 250 250 251 252 252 252 252 251 250 250 250 249 249 250 253 255 257 260 262 265 267 269 270 271 271 271 272 274 277 279 280 281 283 285 287 290 292 293 294 296 299 302 305 309 311 312 311 311 310 309
241 246 245 236 230 232 238 244 248 250 251 250 250 251 252 253 254 257 260 262 262 262 260 258 256 253 252 251 252 252 251 251 250 251 252 252 253 252 251 250 249 249 249 250 251 252 251 250 250 250 253 257 259 262 264 266 268 270 271 271 272 273 276 279 280 280 280 282 283 286 288 291 292 293 293 295 297 300 303 305 306 307 307 306 306
240 242 238 231 227 227 231 238 244 248 250 249 248 248 248 249 251 254 258 260 261 261 260 259 257 254 252 250 250 249 249 251 251 251 252 253 254 255 254 252 251 250 250 252 253 254 255 255 255 255 257 259 262 264 266 267 269 270 271 272 273 275 278 279 279 279 279 280 281 283 285 286 286 287 288 290 292 294 295 297 298 299 300 301 301
247 243 236 232 231 232 233 237 241 244 245 245 247 249 249 249 251 253 256 258 259 259 259 259 258 256 254 252 249 246 245 245 245 245 247 249 253 255 256 256 257 257 257 257 258 260 261 264 265 264 263 263 262 263 265 268 269 270 270 270 272 274 275 275 275 276 276 277 278 280 281 281 280 280 281 284 287 289 291 292 292 292 292 292 293
245 240 236 235 236 237 237 238 239 242 244 245 247 250 250 249 250 253 257 259 260 260 260 259 258 257 256 254 253 252 250 248 247 247 248 249 251 254 258 261 263 265 266 266 266 266 267 268 270 269 268 266 265 263 263 265 267 269 270 272 273 274 274 273 274 274 274 274 274 275 275 275 275 275 277 282 287 289 290 290 290 290 290 290 291
238 235 235 237 239 241 242 242 243 245 247 248 249 251 250 249 249 252 256 260 262 262 262 261 260 258 256 254 254 255 255 255 255 255 256 256 257 257 259 261 263 265 267 269 271 271 271 271 271 269 267 267 268 269 268 267 267 268 270 273 275 276 275 275 275 275 275 275 274 272 272 272 274 275 278 282 286 288 288 287 288 289 291 293 294
232 232 233 236 240 244 246 247 248 249 250 251 251 250 249 250 251 252 254 258 260 261 260 261 260 259 257 256 254 254 254 256 257 258 259 259 259 258 257 257 260 262 264 266 268 271 272 273 272 271 269 267 267 270 273 273 273 272 273 274 276 278 278 278 277 277 278 277 277 276 274 274 275 276 278 281 284 285 285 286 288 290 292 294 294
232 233 234 236 238 241 244 245 247 248 248 248 248 249 250 251 251 252 252 252 253 254 255 256 257 257 257 256 255 255 255 256 258 259 260 261 261 261 261 261 261 262 262 262 263 265 267 269 271 272 272 271 271 272 274 275 276 277 277 278 278 278 278 279 279 280 281 281 281 280 279 278 278 279 281 284 286 287 289 291 292 293 293 292 292
235 237 239 239 239 239 239 240 243 244 244 244 246 249 251 252 253 254 253 251 250 251 251 251 251 251 251 252 254 255 257 260 262 264 264 266 266 267 267 268 269 269 268 266 266 266 266 266 268 269 270 272 273 273 272 272 273 275 276 277 277 276 277 278 280 281 281 281 281 282 282 283 283 284 287 289 290 291 292 293 293 293 292 292 293
240 242 245 246 246 244 241 240 242 244 244 245 245 248 251 255 257 257 256 255 254 253 252 252 253 253 255 259 263 267 271 275 278 279 279 277 275 273 271 270 270 272 274 273 272 271 270 270 270 269 269 270 271 270 268 268 270 271 273 274 275 276 276 276 276 277 278 278 280 282 284 285 286 288 289 290 291 291 291 292 293 293 294 295 295
244 247 251 253 253 252 250 249 250 250 250 250 249 250 254 258 260 260 260 261 260 259 260 261 262 264 267 270 274 278 282 285 287 288 288 286 283 280 277 277 278 280 281 281 279 277 276 276 274 272 271 271 271 271 270 269 270 271 272 274 275 275 275 275 275 275 276 278 281 284 285 286 287 287 288 288 288 288 289 290 291 293 294 295 295
246 250 254 256 257 257 256 257 257 256 256 256 256 257 259 263 265 266 267 268 268 268 268 269 270 271 273 275 277 281 285 288 291 292 291 289 286 284 284 286 288 289 290 288 287 285 284 283 282 281 280 279 279 278 277 275 275 275 277 279 279 278 277 276 276 277 278 279 281 282 284 285 284 284 284 284 284 284 286 288 290 291 292 293 293
246 250 252 254 256 257 257 258 258 258 260 261 261 263 264 267 270 271 272 273 273 272 273 274 275 275 276 279 283 288 292 296 298 298 297 295 291 288 287 288 288 289 289 287 285 284 284 284 284 284 284 284 284 283 282 281 280 280 282 284 284 282 279 277 277 278 278 278 278 278 280 281 281 281 281 282 283 284 286 288 290 290 291 291 291
245 248 250 252 254 256 257 256 255 256 258 260 262 264 266 269 271 273 274 274 275 275 275 275 275 274 277 281 287 292 295 297 298 299 300 300 298 295 292 290 288 287 285 283 282 281 282 283 284 285 286 285 285 284 283 281 280 280 281 284 284 282 279 278 277 277 277 277 276 276 276 277 278 281 282 283 284 285 286 288 289 290 290 291 291
246 250 253 255 255 255 255 254 254 255 256 258 261 263 266 268 269 271 273 274 275 276 275 275 275 275 278 282 287 291 292 294 296 298 299 300 300 299 298 296 293 290 288 285 283 282 283 284 285 286 287 287 286 285 284 281 280 279 280 281 280 277 276 276 276 277 277 276 275 274 273 274 278 282 284 284 284 286 287 289 290 290 290 291 291
249 253 255 254 252 252 252 253 255 256 258 260 261 262 264 265 266 268 270 272 274 275 276 275 274 276 279 281 283 287 289 292 296 298 299 300 300 299 299 297 295 294 292 288 284 284 286 287 287 287 287 288 287 287 285 283 281 280 279 279 278 275 273 272 273 274 274 274 274 274 274 276 281 283 284 284 285 286 288 288 288 288 288 289 290
251 255 254 252 249 249 251 254 257 259 261 262 262 262 262 263 264 267 269 270 271 272 274 274 274 276 278 279 280 283 285 289 293 296 297 297 297 298 297 297 296 294 290 285 282 284 288 290 290 289 288 288 287 287 286 284 282 280 279 278 277 275 273 273 273 274 274 274 274 274 275 279 282 283 282 283 284 286 286 285 285 286 287 289 290
251 253 253 252 251 252 255 259 262 263 263 262 261 260 261 261 262 265 267 269 270 270 270 271 272 274 275 276 277 278 281 284 288 292 294 295 295 295 294 295 294 292 289 286 282 283 287 289 290 290 290 289 288 288 286 283 280 279 279 279 278 276 275 274 275 275 275 274 273 273 275 279 281 281 281 281 283 284 284 283 283 285 288 291 292
253 252 252 253 254 256 260 263 264 264 263 262 261 261 261 261 262 264 266 267 268 269 269 269 269 270 272 275 275 275 277 279 282 286 288 291 293 293 290 289 288 288 288 288 284 284 286 287 287 289 289 289 289 289 287 285 281 279 279 279 279 277 275 274 275 274 273 272 272 274 277 279 280 280 279 280 282 283 282 281 282 284 287 293 296
257 254 253 254 254 256 259 262 263 264 264 263 263 263 262 263 264 265 266 267 268 269 269 269 269 270 271 274 275 274 273 273 276 279 281 284 287 287 285 284 285 287 288 288 286 285 284 285 287 288 288 288 289 289 288 287 285 282 281 281 279 277 274 273 273 272 271 272 274 277 279 280 279 278 278 279 282 283 282 281 282 284 287 293 297
254 254 254 254 254 256 258 260 261 263 264 264 264 263 263 264 264 265 266 267 268 269 270 270 271 272 273 275 275 274 272 270 271 273 275 278 280 281 281 282 284 285 285 285 285 283 280 280 283 284 284 286 287 287 287 287 286 284 283 282 280 276 275 274 274 273 273 275 278 279 280 279 278 277 277 279 282 285 283 282 283 285 287 291 297
252 253 254 254 255 257 259 261 262 263 264 264 264 265 265 265 265 266 267 267 268 269 269 271 272 273 275 276 275 275 274 272 272 273 274 275 278 279 280 281 282 282 281 281 281 279 278 278 278 278 280 283 285 285 285 284 284 285 285 283 280 277 276 275 275 276 277 278 279 280 280 280 278 277 278 280 284 286 285 283 284 287 289 292 298
255 254 254 254 255 257 260 262 263 263 264 265 264 265 265 266 266 266 267 268 269 269 268 268 268 270 271 272 272 272 271 269 269 272 274 275 278 279 280 281 282 282 281 279 279 278 277 276 275 276 279 281 282 283 282 280 282 285 285 283 280 277 275 275 276 277 278 279 280 281 281 280 280 280 280 281 284 286 286 285 285 288 291 295 300
Height
5806 5806 5806 5806 5806 5807 5808 5809 5810 5811 5812 5812 5812 5812 5812 5812 5811 5811 5811 5811 5811 5811 5811 5812 5812 5812 5812 5813 5814 5814 5815 5815 5815 5814 5814 5815 5816 5818 5819 5819 5819 5820 5821 5821 5821 5822 5822 5822 5823 5823 5823 5823 5823 5823 5823 5823 5823 5823 5822 5822 5822 5822 5822 5822 5822 5822 5822 5822 5823 5823 5823 5823 5824 5824 5824 5825 5825 5826 5826 5826 5827 5827 5827 5827 5828
5803 5804 5804 5805 5806 5807 5807 5808 5809 5810 5811 5811 5811 5811 5811 5810 5810 5809 5809 5809 5809 5809 5810 5811 5811 5811 5811 5812 5813 5814 5814 5814 5813 5812 5812 5813 5816 5817 5817 5818 5818 5819 5820 5820 5820 5820 5820 5821 5821 5821 5821 5821 5821 5821 5821 5821 5821 5821 5821 5821 5821 5821 5821 5820 5820 5821 5821 5821 5821 5821 5821 5821 5822 5822 5822 5823 5823 5824 5824 5824 5825 5825 5825 5826 5826
5801 5802 5803 5804 5805 5806 5807 5808 5809 5809 5809 5810 5810 5810 5810 5809 5809 5808 5808 5808 5808 5808 5809 5809 5810 5810 5811 5812 5813 5814 5813 5812 5811 5810 5811 5813 5814 5815 5816 5817 5818 5818 5818 5818 5818 5818 5818 5819 5819 5819 5819 5819 5819 5819 5819 5819 5819 5819 5819 5819 5819 5819 5819 5819 5819 5819 5819 5819 5819 5819 5819 5819 5820 5820 5820 5821 5821 5821 5822 5822 5823 5823 5824 5824 5824
5799 5800 5801 5803 5804 5805 5806 5807 5808 5808 5808 5808 5809 5809 5809 5808 5808 5807 5807 5807 5807 5808 5808 5808 5809 5809 5811 5812 5814 5814 5812 5810 5809 5809 5810 5812 5813 5814 5815 5816 5817 5817 5817 5817 5817 5816 5816 5817 5817 5817 5817 5817 5817 5817 5817 5817 5816 5816 5816 5816 5817 5817 5817 5817 5817 5818 5818 5818 5818 5818 5818 5818 5818 5818 5818 5818 5819 5819 5819 5820 5820 5821 5821 5822 5822
5798 5799 5800 5802 5802 5803 5805 5806 5807 5807 5807 5807 5807 5808 5808 5807 5807 5806 5806 5806 5806 5807 5807 5807 5808 5809 5811 5813 5813 5812 5810 5808 5807 5809 5811 5812 5813 5813 5814 5815 5816 5816 5816 5816 5815 5815 5815 5814 5814 5814 5814 5814 5814 5815 5815 5815 5815 5814 5814 5814 5814 5815 5815 5815 5816 5816 5816 5816 5816 5816 5816 5816 5816 5816 5816 5816 5816 5817 5817 5817 5818 5819 5819 5819 5820
5798 5799 5800 5801 5801 5802 5803 5804 5805 5806 5806 5806 5806 5806 5807 5806 5806 5805 5805 5805 5805 5806 5806 5807 5807 5809 5811 5812 5812 5810 5808 5807 5808 5809 5810 5811 5812 5813 5813 5814 5814 5814 5814 5814 5814 5814 5813 5813 5812 5812 5812 5812 5812 5813 5813 5813 5813 5812 5812 5812 5812 5813 5813 5813 5813 5813 5813 5814 5814 5814 5814 5814 5814 5814 5814 5814 5814 5814 5815 5815 5815 5816 5816 5817 5817
5798 5798 5799 5800 5801 5801 5802 5803 5803 5804 5804 5805 5805 5805 5806 5805 5805 5804 5804 5804 5804 5805 5806 5807 5807 5809 5810 5811 5809 5807 5807 5807 5808 5809 5809 5810 5811 5811 5812 5812 5812 5812 5813 5813 5813 5812 5812 5811 5811 5811 5811 5810 5811 5811 5811 5811 5810 5810 5809 5810 5810 5810 5811 5811 5810 5810 5810 5810 5811 5811 5811 5811 5811 5811 5811 5812 5812 5812 5812 5813 5813 5813 5814 5814 5815
5797 5798 5798 5799 5800 5801 5801 5802 5802 5803 5803 5803 5804 5804 5805 5805 5804 5804 5803 5803 5804 5804 5805 5806 5807 5809 5809 5808 5807 5806 5806 5807 5808 5809 5809 5809 5809 5810 5810 5810 5811 5811 5811 5811 5811 5811 5810 5810 5810 5809 5809 5809 5809 5809 5809 5808 5808 5808 5808 5808 5808 5808 5808 5807 5807 5807 5807 5808 5808 5808 5808 5808 5809 5809 5809 5809 5810 5810 5810 5810 5811 5811 5811 5812 5812
5796 5797 5797 5798 5799 5800 5800 5801 5801 5802 5802 5802 5803 5803 5804 5804 5803 5803 5803 5803 5803 5804 5805 5805 5807 5807 5807 5807 5806 5805 5805 5806 5808 5808 5808 5808 5808 5808 5809 5809 5810 5810 5810 5810 5810 5810 5809 5809 5808 5808 5807 5807 5807 5808 5807 5806 5806 5806 5806 5806 5806 5805 5805 5804 5805 5805 5806 5806 5806 5806 5806 5806 5805 5806 5806 5807 5807 5808 5808 5808 5808 5809 5809 5809 5810
5794 5795 5796 5797 5798 5798 5799 5799 5800 5800 5801 5801 5802 5803 5803 5803 5803 5803 5802 5802 5803 5803 5804 5805 5805 5806 5806 5806 5805 5805 5805 5806 5807 5807 5807 5807 5807 5808 5808 5809 5809 5809 5809 5809 5809 5809 5808 5808 5807 5806 5806 5806 5806 5806 5806 5805 5805 5805 5804 5804 5803 5803 5802 5802 5803 5803 5804 5804 5804 5803 5803 5803 5803 5803 5803 5804 5804 5805 5805 5806 5806 5807 5807 5807 5808
5793 5794 5795 5796 5796 5797 5798 5798 5799 5799 5800 5800 5801 5802 5802 5802 5802 5802 5802 5802 5802 5803 5803 5803 5804 5804 5805 5805 5804 5804 5804 5805 5806 5806 5806 5806 5806 5807 5807 5808 5808 5807 5807 5807 5808 5808 5807 5806 5806 5806 5806 5806 5805 5805 5805 5805 5804 5803 5802 5802 5801 5801 5800 5800 5800 5801 5802 5801 5800 5799 5799 5799 5799 5799 5800 5801 5801 5802 5802 5803 5804 5804 5805 5805 5806
5792 5793 5794 5795 5795 5796 5796 5797 5798 5798 5799 5799 5800 5800 5801 5801 5801 5802 5802 5802 5802 5802 5802 5802 5803 5803 5803 5803 5803 5803 5804 5805 5806 5806 5806 5806 5806 5806 5806 5807 5807 5807 5807 5807 5806 5806 5806 5805 5806 5806 5806 5805 5805 5804 5804 5803 5803 5802 5801 5801 5800 5799 5799 5798 5798 5798 5798 5797 5796 5796 5796 5797 5796 5796 5797 5797 5798 5799 5800 5801 5801 5802 5802 5803 5803
5792 5792 5793 5794 5794 5794 5795 5796 5797 5797 5797 5798 5798 5799 5799 5800 5800 5800 5801 5801 5802 5802 5802 5802 5802 5802 5802 5802 5803 5803 5804 5805 5805 5805 5805 5805 5805 5805 5805 5806 5806 5806 5806 5806 5805 5805 5804 5804 5805 5805 5805 5804 5804 5803 5803 5802 5802 5801 5801 5800 5799 5798 5797 5797 5796 5795 5795 5795 5794 5794 5794 5795 5795 5795 5795 5795 5797 5797 5798 5798 5799 5799 5800 5800 5801
5791 5791 5792 5792 5793 5793 5794 5795 5795 5796 5796 5797 5797 5797 5798 5798 5798 5799 5800 5800 5801 5801 5801 5801 5802 5802 5802 5801 5802 5803 5803 5804 5804 5804 5803 5803 5804 5804 5804 5805 5805 5805 5805 5804 5803 5803 5803 5803 5804 5804 5803 5803 5803 5802 5802 5801 5801 5800 5800 5799 5798 5797 5796 5795 5794 5793 5792 5792 5793 5792 5793 5793 5793 5793 5793 5793 5794 5795 5795 5796 5796 5797 5798 5798 5798
5790 5790 5791 5791 5792 5792 5793 5794 5794 5795 5795 5796 5796 5796 5797 5797 5797 5798 5798 5799 5799 5800 5800 5800 5800 5801 5801 5801 5801 5802 5803 5803 5803 5802 5802 5802 5802 5803 5803 5804 5804 5803 5803 5802 5801 5801 5802 5802 5802 5802 5802 5801 5801 5801 5800 5800 5799 5799 5798 5798 5797 5796 5795 5794 5792 5791 5790 5790 5790 5790 5790 5791 5791 5791 5791 5791 5791 5792 5793 5794 5794 5795 5795 5796 5796
5788 5789 5789 5790 5791 5791 5791 5792 5793 5793 5794 5794 5795 5795 5795 5796 5796 5797 5797 5798 5798 5798 5799 5798 5798 5799 5799 5800 5800 5801 5802 5802 5801 5801 5801 5801 5801 5801 5802 5802 5802 5801 5800 5800 5800 5801 5801 5801 5801 5800 5800 5800 5799 5799 5799 5798 5798 5797 5797 5797 5796 5795 5794 5792 5791 5789 5789 5789 5789 5788 5788 5789 5789 5789 5790 5789 5790 5790 5791 5791 5792 5792 5792 5793 5794
5787 5787 5788 5788 5789 5790 5790 5791 5791 5792 5792 5793 5793 5794 5794 5795 5795 5796 5796 5797 5797 5797 5797 5797 5797 5797 5798 5798 5799 5800 5800 5800 5800 5800 5800 5800 5799 5800 5801 5800 5800 5799 5799 5799 5799 5799 5799 5799 5799 5799 5799 5798 5798 5797 5797 5796 5796 5796 5795 5795 5795 5794 5793 5792 5790 5788 5787 5787 5787 5787 5787 5788 5788 5788 5788 5788 5788 5788 5788 5789 5790 5790 5790 5790 5791
5785 5785 5786 5786 5787 5788 5788 5789 5790 5790 5790 5791 5792 5792 5793 5793 5794 5794 5795 5796 5796 5796 5796 5796 5796 5796 5796 5797 5798 5798 5799 5798 5799 5799 5798 5798 5798 5799 5799 5798 5798 5797 5797 5798 5798 5798 5798 5797 5797 5797 5797 5797 5796 5795 5795 5795 5794 5794 5793 5793 5793 5792 5792 5791 5789 5786 5785 5786 5786 5786 5786 5786 5786 5786 5786 5786 5786 5787 5787 5787 5787 5787 5787 5788 5788
5783 5783 5784 5784 5785 5786 5787 5787 5788 5789 5789 5789 5790 5791 5791 5792 5792 5793 5794 5794 5795 5795 5795 5795 5796 5796 5796 5796 5796 5797 5797 5797 5797 5797 5797 5797 5797 5797 5798 5797 5796 5796 5796 5796 5797 5797 5796 5796 5795 5795 5795 5795 5795 5794 5794 5793 5793 5792 5792 5791 5791 5790 5790 5789 5787 5785 5784 5785 5784 5784 5785 5785 5785 5785 5785 5785 5785 5785 5785 5785 5784 5784 5785 5785 5785
5781 5782 5782 5783 5784 5785 5785 5786 5787 5787 5787 5788 5789 5790 5790 5790 5791 5791 5792 5793 5793 5793 5794 5794 5794 5794 5794 5795 5795 5796 5796 5796 5796 5796 5796 5796 5796 5796 5796 5795 5794 5794 5795 5795 5796 5795 5795 5794 5794 5794 5794 5793 5793 5792 5792 5791 5791 5790 5790 5789 5789 5788 5787 5787 5785 5784 5783 5783 5782 5782 5782 5782 5783 5783 5783 5783 5783 5783 5783 5783 5783 5783 5782 5783 5783
5780 5780 5781 5782 5783 5784 5784 5785 5786 5786 5786 5787 5788 5789 5789 5789 5790 5790 5791 5791 5792 5792 5792 5792 5793 5793 5793 5794 5795 5795 5795 5795 5795 5796 5795 5795 5795 5795 5794 5793 5793 5793 5794 5794 5794 5794 5793 5792 5792 5792 5791 5791 5791 5790 5790 5789 5789 5788 5788 5787 5786 5786 5785 5784 5784 5783 5782 5781 5781 5781 5780 5780 5781 5781 5781 5781 5781 5781 5781 5781 5781 5781 5781 5780 5780
5779 5779 5780 5781 5782 5783 5784 5784 5785 5785 5785 5786 5787 5787 5788 5788 5789 5789 5789 5790 5790 5790 5791 5791 5791 5791 5792 5793 5794 5794 5794 5795 5795 5794 5794 5794 5794 5794 5793 5792 5791 5792 5792 5792 5793 5792 5790 5790 5791 5790 5789 5789 5789 5788 5788 5787 5787 5786 5786 5785 5785 5784 5783 5782 5782 5781 5780 5780 5780 5779 5779 5779 5779 5779 5779 5779 5779 5779 5779 5779 5779 5779 5779 5778 5778
5778 5779 5779 5780 5781 5782 5783 5783 5783 5784 5784 5784 5785 5786 5787 5787 5787 5788 5788 5788 5789 5789 5789 5789 5790 5790 5791 5792 5792 5792 5793 5793 5793 5793 5792 5793 5793 5792 5791 5790 5790 5790 5790 5791 5791 5790 5789 5789 5789 5788 5788 5787 5787 5786 5786 5786 5785 5785 5784 5784 5783 5782 5782 5781 5780 5779 5779 5778 5778 5778 5777 5777 5777 5777 5777 5776 5776 5776 5776 5776 5776 5776 5776 5776 5776
5777 5778 5778 5779 5780 5781 5781 5782 5782 5782 5783 5783 5784 5785 5785 5786 5786 5786 5787 5787 5787 5787 5787 5788 5788 5788 5789 5790 5790 5790 5790 5791 5791 5791 5791 5791 5791 5791 5790 5789 5789 5789 5789 5789 5789 5788 5787 5787 5787 5786 5786 5786 5785 5785 5784 5784 5784 5783 5783 5782 5782 5781 5780 5779 5778 5778 5777 5777 5776 5776 5776 5775 5775 5775 5775 5775 5774 5774 5774 5774 5773 5773 5773 5773 5773
5775 5776 5777 5778 5779 5779 5780 5781 5781 5781 5782 5782 5783 5784 5784 5785 5785 5785 5785 5785 5785 5786 5786 5786 5786 5787 5787 5788 5788 5788 5788 5788 5789 5789 5789 5790 5789 5789 5788 5788 5788 5788 5788 5788 5787 5787 5786 5786 5785 5785 5784 5784 5783 5783 5783 5783 5782 5782 5781 5781 5780 5779 5778 5778 5777 5776 5776 5775 5775 5775 5774 5774 5774 5774 5773 5773 5773 5773 5772 5772 5772 5771 5771 5771 5771
5773 5774 5775 5776 5777 5778 5778 5779 5780 5780 5781 5781 5782 5782 5783 5783 5783 5783 5784 5784 5784 5784 5784 5784 5785 5785 5785 5786 5786 5786 5786 5786 5787 5787 5788 5788 5788 5787 5786 5786 5787 5786 5786 5786 5786 5785 5785 5784 5783 5783 5783 5782 5782 5782 5781 5781 5781 5780 5780 5779 5778 5777 5777 5776 5776 5775 5774 5774 5774 5773 5773 5773 5772 5772 5772 5772 5772 5772 5771 5771 5770 5770 5770 5769 5769
5771 5772 5773 5774 5774 5775 5776 5777 5778 5779 5779 5780 5780 5781 5781 5782 5782 5782 5782 5782 5782 5782 5783 5783 5783 5784 5784 5784 5784 5784 5784 5784 5785 5785 5786 5786 5785 5785 5784 5785 5785 5785 5785 5785 5785 5784 5783 5782 5781 5781 5781 5781 5780 5780 5780 5780 5779 5779 5778 5777 5776 5775 5775 5775 5775 5774 5773 5773 5773 5772 5772 5772 5771 5771 5771 5771 5771 5770 5770 5770 5769 5769 5768 5768 5767
5769 5770 5771 5772 5772 5773 5773 5774 5776 5777 5778 5778 5779 5779 5780 5780 5780 5780 5780 5781 5781 5781 5782 5782 5782 5783 5783 5782 5782 5782 5782 5783 5783 5783 5784 5784 5783 5783 5783 5783 5783 5783 5784 5783 5783 5782 5782 5781 5780 5779 5779 5779 5779 5778 5778 5778 5777 5777 5776 5775 5774 5774 5773 5773 5773 5773 5772 5772 5772 5771 5771 5771 5771 5770 5770 5769 5769 5769 5769 5769 5768 5768 5767 5767 5766
5768 5769 5769 5770 5770 5771 5771 5772 5774 5775 5776 5777 5777 5777 5778 5778 5778 5778 5779 5779 5780 5780 5781 5781 5781 5782 5781 5781 5781 5781 5781 5781 5781 5782 5782 5782 5781 5781 5781 5782 5782 5782 5782 5781 5781 5780 5779 5779 5778 5778 5777 5777 5777 5776 5776 5775 5775 5774 5774 5773 5772 5772 5772 5772 5772 5771 5771 5770 5770 5770 5770 5770 5769 5769 5768 5768 5768 5768 5768 5768 5767 5767 5766 5766 5766
5767 5768 5768 5769 5769 5769 5770 5771 5772 5773 5774 5775 5776 5776 5776 5776 5776 5777 5777 5778 5778 5779 5779 5780 5780 5780 5780 5780 5780 5780 5780 5780 5780 5780 5780 5779 5779 5779 5780 5780 5780 5780 5779 5779 5778 5778 5777 5777 5776 5776 5775 5775 5774 5774 5774 5773 5773 5772 5772 5771 5770 5770 5770 5771 5770 5770 5769 5768 5768 5768 5769 5769 5768 5768 5767 5767 5766 5766 5766 5766 5766 5766 5765 5765 5764
5767 5767 5768 5768 5768 5768 5769 5770 5771 5772 5773 5774 5774 5774 5775 5775 5775 5775 5776 5776 5777 5777 5777 5778 5778 5778 5778 5778 5778 5778 5778 5778 5778 5778 5778 5777 5777 5777 5778 5778 5778 5778 5777 5777 5776 5775 5775 5775 5774 5774 5774 5773 5773 5772 5772 5772 5771 5771 5770 5769 5769 5769 5769 5769 5769 5768 5767 5767 5766 5766 5767 5767 5767 5767 5766 5765 5765 5765 5765 5765 5764 5764 5764 5763 5763
5765 5766 5766 5766 5767 5767 5768 5769 5770 5770 5771 5772 5772 5773 5773 5773 5774 5774 5774 5775 5775 5775 5776 5776 5776 5776 5776 5776 5776 5776 5777 5777 5776 5776 5776 5776 5776 5775 5776 5776 5776 5775 5775 5775 5774 5774 5773 5773 5772 5772 5771 5771 5771 5770 5770 5769 5769 5768 5768 5767 5767 5767 5767 5766 5766 5766 5766 5765 5765 5764 5764 5765 5765 5765 5764 5764 5763 5763 5763 5762 5762 5762 5762 5761 5761
5763 5763 5764 5765 5765 5766 5766 5767 5768 5769 5769 5770 5770 5771 5771 5771 5772 5772 5773 5773 5773 5773 5774 5774 5774 5774 5775 5775 5775 5775 5775 5775 5775 5775 5775 5775 5775 5775 5774 5774 5774 5773 5773 5773 5772 5772 5771 5771 5770 5769 5769 5768 5768 5768 5768 5768 5767 5766 5765 5765 5765 5765 5764 5764 5764 5764 5764 5764 5763 5763 5763 5762 5762 5762 5762 5762 5762 5761 5761 5760 5760 5759 5759 5759 5758
5761 5761 5762 5763 5763 5764 5765 5765 5766 5767 5767 5768 5768 5769 5769 5770 5770 5771 5771 5771 5771 5771 5772 5772 5772 5773 5773 5773 5773 5773 5773 5773 5773 5773 5773 5774 5774 5774 5773 5773 5772 5771 5771 5770 5770 5769 5769 5768 5768 5767 5767 5767 5766 5766 5766 5765 5765 5764 5763 5763 5762 5762 5762 5762 5762 5762 5762 5761 5761 5761 5761 5760 5760 5760 5760 5760 5759 5759 5758 5757 5757 5757 5756 5756 5755
5759 5759 5760 5761 5761 5762 5763 5764 5764 5765 5766 5766 5767 5767 5768 5768 5769 5769 5769 5769 5770 5770 5770 5770 5771 5771 5771 5771 5771 5771 5771 5771 5771 5771 5771 5771 5771 5771 5771 5771 5770 5770 5769 5768 5767 5767 5766 5766 5765 5765 5765 5765 5765 5764 5764 5763 5762 5762 5761 5761 5760 5760 5760 5760 5760 5760 5759 5759 5759 5759 5758 5758 5758 5757 5757 5757 5757 5756 5755 5755 5754 5754 5753 5753 5752
5758 5758 5758 5759 5759 5760 5761 5762 5762 5763 5764 5765 5765 5766 5766 5767 5767 5767 5768 5768 5768 5768 5768 5769 5769 5769 5769 5769 5769 5769 5769 5769 5769 5769 5769 5769 5769 5769 5768 5768 5768 5767 5767 5766 5765 5765 5765 5764 5763 5763 5763 5762 5763 5763 5762 5761 5760 5759 5758 5758 5758 5758 5758 5757 5757 5757 5757 5756 5756 5756 5756 5755 5755 5755 5755 5754 5753 5753 5752 5751 5751 5750 5750 5749 5749
5756 5757 5757 5758 5758 5759 5759 5760 5760 5761 5762 5763 5763 5764 5764 5765 5765 5766 5766 5766 5766 5766 5767 5767 5767 5767 5767 5767 5767 5767 5767 5767 5767 5767 5767 5767 5766 5766 5766 5765 5765 5765 5764 5764 5764 5763 5763 5762 5762 5761 5761 5761 5761 5761 5760 5759 5758 5757 5756 5756 5756 5756 5755 5755 5754 5754 5754 5753 5753 5753 5752 5752 5752 5752 5751 5750 5749 5749 5748 5748 5747 5746 5746 5745 5745
5755 5756 5756 5756 5757 5757 5758 5758 5758 5759 5759 5760 5761 5762 5762 5763 5763 5764 5764 5764 5765 5765 5765 5765 5765 5765 5765 5765 5764 5764 5764 5764 5764 5764 5764 5764 5763 5763 5763 5763 5763 5762 5762 5761 5761 5761 5761 5760 5760 5759 5759 5759 5758 5758 5758 5757 5757 5756 5755 5754 5753 5753 5752 5752 5751 5751 5751 5750 5750 5749 5749 5748 5748 5748 5747 5746 5746 5746 5745 5744 5743 5743 5742 5741 5740
5753 5754 5755 5755 5756 5756 5756 5756 5756 5757 5757 5758 5759 5759 5760 5760 5761 5761 5762 5762 5762 5763 5763 5763 5763 5762 5762 5762 5762 5762 5762 5762 5762 5762 5761 5761 5761 5760 5760 5760 5760 5760 5759 5759 5758 5758 5758 5757 5757 5757 5756 5756 5756 5755 5755 5755 5754 5753 5752 5751 5751 5750 5749 5749 5748 5748 5747 5747 5746 5746 5745 5745 5745 5744 5743 5743 5743 5742 5741 5741 5740 5739 5738 5737 5736
5751 5751 5752 5753 5753 5754 5754 5754 5754 5754 5755 5756 5756 5757 5757 5757 5758 5759 5759 5759 5760 5760 5760 5760 5760 5760 5760 5760 5760 5759 5759 5759 5759 5759 5758 5758 5758 5758 5757 5757 5756 5756 5756 5755 5755 5755 5754 5754 5754 5754 5753 5753 5753 5752 5751 5751 5750 5749 5749 5748 5747 5747 5746 5746 5745 5745 5744 5743 5743 5742 5742 5741 5741 5741 5740 5740 5740 5739 5738 5737 5736 5735 5734 5733 5732
5748 5749 5749 5750 5750 5751 5752 5752 5752 5752 5753 5753 5754 5754 5754 5755 5755 5756 5756 5756 5757 5757 5757 5757 5757 5757 5757 5757 5756 5756 5756 5755 5755 5755 5755 5755 5755 5754 5754 5753 5753 5752 5752 5752 5751 5751 5751 5751 5751 5750 5750 5749 5749 5748 5748 5747 5747 5746 5745 5744 5744 5743 5743 5742 5742 5742 5741 5740 5739 5739 5738 5738 5738 5737 5737 5737 5736 5735 5734 5733 5732 5731 5730 5729 5728
5745 5746 5746 5747 5748 5748 5749 5749 5750 5750 5750 5750 5751 5751 5752 5752 5752 5752 5753 5753 5753 5753 5753 5753 5753 5753 5753 5753 5753 5753 5753 5752 5752 5751 5751 5751 5751 5751 5751 5750 5749 5749 5748 5748 5748 5748 5748 5748 5747 5747 5747 5746 5745 5744 5744 5743 5743 5742 5741 5741 5740 5739 5738 5738 5738 5738 5737 5736 5735 5735 5734 5734 5734 5733 5733 5732 5732 5730 5729 5728 5727 5725 5724 5723 5723
5743 5743 5744 5745 5745 5746 5746 5746 5747 5747 5747 5748 5748 5748 5748 5749 5749 5749 5749 5749 5750 5750 5750 5749 5749 5750 5750 5750 5750 5749 5749 5749 5748 5748 5748 5748 5747 5747 5747 5747 5746 5745 5745 5744 5744 5744 5744 5744 5744 5744 5743 5743 5742 5741 5740 5739 5739 5738 5738 5737 5736 5735 5735 5734 5733 5733 5732 5731 5730 5730 5730 5730 5729 5728 5727 5727 5726 5725 5724 5723 5721 5720 5719 5718 5717
5739 5740 5741 5742 5742 5743 5743 5744 5744 5745 5745 5745 5745 5745 5745 5745 5746 5746 5746 5746 5746 5746 5746 5746 5746 5746 5746 5746 5746 5745 5745 5745 5744 5744 5744 5743 5743 5743 5743 5743 5743 5742 5742 5741 5740 5740 5740 5739 5739 5740 5739 5739 5738 5737 5736 5735 5734 5734 5733 5732 5731 5731 5730 5729 5729 5728 5728 5726 5725 5726 5726 5725 5724 5723 5722 5721 5721 5720 5718 5717 5716 5715 5714 5713 5712
5736 5737 5738 5739 5739 5740 5740 5741 5742 5742 5742 5743 5742 5742 5742 5742 5742 5742 5742 5742 5742 5742 5742 5742 5742 5742 5742 5742 5742 5741 5741 5740 5740 5740 5740 5740 5739 5739 5738 5738 5738 5738 5738 5737 5737 5736 5735 5735 5734 5734 5734 5734 5734 5733 5732 5731 5730 5729 5728 5727 5726 5726 5725 5724 5724 5723 5723 5722 5721 5721 5721 5719 5719 5718 5717 5716 5715 5714 5713 5712 5711 5710 5709 5708 5707
5733 5734 5735 5736 5736 5737 5738 5738 5738 5739 5739 5739 5739 5739 5739 5738 5739 5739 5739 5738 5738 5738 5738 5738 5738 5738 5738 5738 5738 5737 5737 5737 5736 5736 5736 5736 5735 5735 5734 5734 5734 5734 5734 5734 5733 5732 5731 5731 5730 5729 5728 5728 5728 5727 5727 5726 5725 5724 5723 5722 5721 5720 5720 5719 5718 5718 5717 5717 5716 5716 5715 5714 5714 5713 5712 5711 5710 5709 5707 5706 5705 5704 5703 5702 5700
5731 5732 5732 5733 5733 5734 5734 5734 5735 5735 5735 5735 5735 5735 5735 5734 5734 5734 5734 5734 5734 5734 5734 5734 5734 5734 5734 5734 5734 5734 5734 5733 5733 5732 5732 5732 5732 5731 5731 5730 5730 5730 5730 5730 5729 5728 5727 5726 5725 5725 5724 5722 5721 5721 5721 5720 5720 5719 5718 5717 5716 5715 5714 5713 5713 5713 5712 5712 5711 5710 5709 5709 5709 5707 5706 5705 5704 5703 5702 5700 5698 5697 5696 5695 5694
5728 5728 5728 5729 5730 5730 5730 5731 5731 5731 5731 5731 5731 5731 5731 5730 5730 5730 5729 5729 5729 5730 5730 5730 5730 5730 5730 5730 5730 5730 5730 5730 5729 5728 5727 5728 5728 5727 5726 5726 5725 5725 5725 5725 5724 5723 5722 5720 5720 5720 5719 5717 5716 5715 5715 5714 5714 5713 5713 5712 5711 5710 5709 5708 5708 5708 5707 5706 5705 5704 5704 5704 5703 5702 5701 5699 5698 5696 5695 5694 5692 5690 5689 5688 5687
5723 5723 5724 5724 5725 5726 5726 5727 5727 5727 5727 5726 5726 5726 5726 5726 5725 5725 5725 5725 5725 5725 5725 5724 5724 5725 5725 5725 5725 5725 5724 5724 5723 5722 5722 5723 5723 5723 5721 5721 5720 5720 5719 5719 5719 5718 5717 5716 5715 5714 5713 5712 5711 5710 5709 5709 5708 5708 5707 5706 5705 5704 5703 5702 5702 5702 5702 5701 5700 5699 5699 5698 5697 5696 5695 5693 5692 5690 5688 5687 5685 5683 5683 5682 5680
5718 5719 5719 5719 5720 5721 5721 5722 5722 5722 5722 5721 5721 5721 5720 5720 5720 5720 5719 5720 5720 5720 5720 5720 5719 5719 5719 5719 5719 5719 5719 5717 5716 5716 5716 5716 5716 5716 5716 5715 5714 5714 5714 5713 5713 5713 5712 5710 5709 5707 5707 5707 5706 5705 5705 5704 5703 5702 5701 5700 5699 5698 5697 5696 5696 5696 5696 5695 5694 5693 5692 5692 5691 5690 5689 5688 5686 5684 5682 5680 5678 5676 5676 5675 5673
5713 5714 5714 5714 5715 5716 5716 5716 5717 5717 5716 5715 5715 5715 5715 5714 5714 5714 5713 5713 5714 5714 5714 5714 5714 5714 5714 5714 5713 5714 5714 5713 5710 5708 5708 5709 5709 5708 5708 5708 5708 5708 5708 5707 5707 5707 5706 5705 5703 5701 5701 5701 5700 5699 5699 5698 5697 5697 5696 5695 5694 5692 5691 5690 5690 5689 5689 5689 5688 5687 5686 5685 5684 5683 5682 5682 5680 5679 5677 5674 5672 5670 5670 5669 5666